Location: Newark
(53.7764°N, 20.4798°E)
Time: 12:18:56
(UTC+00:00)

N. Korean satellite - Visible Passes

Search period start: 29 September 2020 00:00
Search period end: 09 October 2020 00:00
Orbit: 455 x 503 km, 97.2° (Epoch: 28 September)

Date Brightness Start Highest point End Pass type
(mag) Time Alt. Az. Time Alt. Az. Time Alt. Az.
29 Sep 9.3 03:34:06 10° NE 03:37:07 24° E 03:40:05 10° SSE visible
30 Sep 10.0 03:08:55 10° NE 03:10:49 14° E 03:12:42 10° ESE visible
02 Oct 8.6 03:49:05 10° NNE 03:52:26 33° E 03:55:41 10° SSE visible
03 Oct 9.7 03:23:32 10° NE 03:26:10 19° E 03:28:45 10° SE visible
04 Oct 10.3 02:59:04 10° ENE 02:59:49 10° E 03:00:33 10° E visible
04 Oct 10.8 16:48:19 10° W 16:48:40 10° W 16:49:01 10° W visible
05 Oct 7.7 04:04:08 10° NNE 04:07:39 48° E 04:11:05 10° S visible
06 Oct 9.1 03:38:22 10° NE 03:41:26 26° E 03:44:27 10° SSE visible
07 Oct 9.9 03:13:02 10° NE 03:15:07 15° E 03:17:11 10° SE visible
08 Oct 10.4 16:35:50 10° WSW 16:37:35 13° W 16:39:19 10° WNW visible
